| time (UTC) | temp F | wind direction | speed MPH | gust MPH | rain 1hr in | rain 24hr in | rain mn in | humidity % | barometer mb |
| 20260903104521 | 63 | 293 | 1.0 | 4.0 | 0.00 | 0.01 | 0.00 | 71 | 1002.9 |
| 20260903103521 | 64 | 225 | 1.0 | 7.0 | 0.00 | 0.01 | 0.00 | 73 | 1002.9 |
| 20260903102521 | 64 | 270 | 1.0 | 6.0 | 0.00 | 0.01 | 0.00 | 72 | 1003.1 |
| 20260903101521 | 65 | 0.0 | 3.0 | 0.00 | 0.01 | 0.00 | 72 | 1003.1 | |
| 20260903100521 | 66 | 270 | 2.0 | 11.0 | 0.00 | 0.01 | 0.00 | 69 | 1003.1 |
| 20260903095521 | 66 | 180 | 6.0 | 14.0 | 0.00 | 0.01 | 0.00 | 72 | 1003.1 |
| 20260903094621 | 65 | 225 | 2.0 | 13.0 | 0.00 | 0.01 | 0.00 | 72 | 1003.2 |
| 20260903064521 | 59 | 180 | 3.0 | 8.0 | 0.00 | 0.01 | 0.00 | 1 | 1003.5 |
| 20260903063521 | 58 | 180 | 4.0 | 9.0 | 0.00 | 0.01 | 0.00 | 1 | 1003.5 |
| 20260903062521 | 58 | 203 | 4.0 | 12.0 | 0.00 | 0.01 | 0.00 | 1 | 1003.6 |
| 20260903061521 | 57 | 180 | 3.0 | 8.0 | 0.00 | 0.01 | 0.00 | 1 | 1003.6 |
| 20260903060521 | 57 | 225 | 1.0 | 6.0 | 0.00 | 0.01 | 0.00 | 1 | 1003.7 |
| 20260903055521 | 57 | 0.0 | 4.0 | 0.00 | 0.01 | 0.00 | 1 | 1003.8 | |
| 20260903054542 | 57 | 203 | 2.0 | 8.0 | 0.00 | 0.01 | 0.00 | 1 | 1003.8 |
| 20260903044521 | 55 | 225 | 2.0 | 5.0 | 0.00 | 0.01 | 0.00 | 1 | 1003.8 |
| 20260903043521 | 55 | 203 | 2.0 | 10.0 | 0.00 | 0.01 | 0.00 | 1 | 1003.8 |
| 20260903042521 | 54 | 203 | 1.0 | 4.0 | 0.00 | 0.01 | 0.00 | 1 | 1003.8 |
| 20260903041521 | 54 | 0.0 | 6.0 | 0.00 | 0.01 | 0.00 | 1 | 1003.8 | |
| 20260903040522 | 54 | 0.0 | 0.0 | 0.00 | 0.01 | 0.00 | 1 | 1003.9 | |
| 20260903035521 | 54 | 0.0 | 0.0 | 0.00 | 0.01 | 0.00 | 1 | 1004.0 | |
| 20260903034521 | 54 | 225 | 1.0 | 5.0 | 0.00 | 0.01 | 0.00 | 1 | 1004.0 |
| 20260903033521 | 54 | 0.0 | 2.0 | 0.00 | 0.01 | 0.00 | 1 | 1004.0 | |
| 20260903032521 | 54 | 0.0 | 3.0 | 0.00 | 0.01 | 0.00 | 1 | 1004.0 | |
| 20260903031521 | 55 | 0.0 | 0.0 | 0.00 | 0.01 | 0.00 | 1 | 1004.0 | |
| 20260903030521 | 55 | 0.0 | 0.0 | 0.00 | 0.01 | 0.00 | 1 | 1004.0 | |
| 20260903025521 | 55 | 0.0 | 0.0 | 0.00 | 0.01 | 0.00 | 1 | 1004.0 | |
| 20260903024521 | 56 | 0.0 | 2.0 | 0.00 | 0.01 | 0.00 | 1 | 1004.0 | |
| 20260903023521 | 56 | 0.0 | 2.0 | 0.00 | 0.01 | 0.00 | 1 | 1004.1 | |
| 20260903022521 | 57 | 0.0 | 4.0 | 0.00 | 0.01 | 0.00 | 1 | 1004.2 | |
| 20260903021521 | 57 | 203 | 1.0 | 4.0 | 0.00 | 0.01 | 0.00 | 1 | 1004.3 |
| 20260903020521 | 57 | 0.0 | 0.0 | 0.00 | 0.01 | 0.00 | 1 | 1004.3 | |
| 20260903015521 | 57 | 0.0 | 4.0 | 0.00 | 0.01 | 0.00 | 1 | 1004.4 | |
| 20260903014521 | 57 | 0.0 | 4.0 | 0.00 | 0.01 | 0.00 | 1 | 1004.4 | |
| 20260903013521 | 56 | 158 | 2.0 | 6.0 | 0.00 | 0.01 | 0.00 | 1 | 1004.4 |
| 20260903012521 | 56 | 0.0 | 0.0 | 0.00 | 0.01 | 0.00 | 1 | 1004.5 | |
| 20260903011521 | 56 | 0.0 | 0.0 | 0.00 | 0.01 | 0.00 | 1 | 1004.6 | |
| 20260903010521 | 56 | 0.0 | 1.0 | 0.00 | 0.01 | 0.00 | 1 | 1004.7 | |
| 20260903005521 | 55 | 0.0 | 0.0 | 0.00 | 0.01 | 0.00 | 1 | 1004.8 | |
| 20260903004521 | 55 | 0.0 | 0.0 | 0.00 | 0.01 | 0.00 | 1 | 1004.8 | |
| 20260903003541 | 55 | 0.0 | 3.0 | 0.00 | 0.01 | 0.00 | 1 | 1004.9 | |
| 20260902223521 | 54 | 0.0 | 0.0 | 0.00 | 0.01 | 0.00 | 1 | 1005.1 | |
| 20260902222521 | 54 | 0.0 | 0.0 | 0.00 | 0.01 | 0.00 | 1 | 1005.3 | |
| 20260902221521 | 54 | 0.0 | 0.0 | 0.00 | 0.01 | 0.00 | 1 | 1005.3 | |
| 20260902220522 | 55 | 0.0 | 0.0 | 0.00 | 0.01 | 0.00 | 1 | 1005.3 | |
| 20260902215521 | 55 | 0.0 | 0.0 | 0.00 | 0.01 | 0.00 | 1 | 1005.4 | |
| 20260902214521 | 55 | 0.0 | 0.0 | 0.00 | 0.01 | 0.00 | 1 | 1005.4 | |
| 20260902213541 | 55 | 0.0 | 1.0 | 0.00 | 0.01 | 0.00 | 1 | 1005.4 | |
| 20260902203521 | 55 | 0.0 | 0.0 | 0.00 | 0.01 | 0.01 | 1 | 1005.5 | |
| 20260902202521 | 55 | 0.0 | 0.0 | 0.00 | 0.01 | 0.01 | 1 | 1005.6 | |
| 20260902201521 | 55 | 0.0 | 0.0 | 0.00 | 0.01 | 0.01 | 1 | 1005.6 | |
| 20260902200521 | 56 | 0.0 | 0.0 | 0.00 | 0.01 | 0.01 | 1 | 1005.6 | |
| 20260902195521 | 56 | 0.0 | 0.0 | 0.00 | 0.01 | 0.01 | 1 | 1005.6 | |
| 20260902194521 | 56 | 0.0 | 0.0 | 0.00 | 0.01 | 0.01 | 1 | 1005.5 | |
| 20260902193521 | 56 | 0.0 | 0.0 | 0.00 | 0.01 | 0.01 | 1 | 1005.6 | |
| 20260902192541 | 57 | 0.0 | 0.0 | 0.00 | 0.01 | 0.01 | 1 | 1005.5 | |
| 20260902182521 | 59 | 0.0 | 0.0 | 0.00 | 0.01 | 0.01 | 1 | 1005.5 | |
| 20260902181522 | 59 | 0.0 | 0.0 | 0.00 | 0.01 | 0.01 | 1 | 1005.5 | |
| 20260902180521 | 59 | 0.0 | 0.0 | 0.01 | 0.01 | 0.01 | 1 | 1005.5 | |
| 20260902175521 | 59 | 0.0 | 0.0 | 0.01 | 0.01 | 0.01 | 1 | 1005.4 | |
| 20260902174521 | 59 | 0.0 | 0.0 | 0.01 | 0.01 | 0.01 | 11 | 1005.5 | |
| 20260902173521 | 60 | 0.0 | 0.0 | 0.01 | 0.01 | 0.01 | 17 | 1005.4 | |
| 20260902172521 | 60 | 0.0 | 0.0 | 0.01 | 0.01 | 0.01 | 18 | 1005.4 | |
| 20260902171521 | 60 | 0.0 | 0.0 | 0.01 | 0.01 | 0.01 | 22 | 1005.4 | |
| 20260902170521 | 61 | 0.0 | 0.0 | 0.00 | 0.00 | 0.00 | 25 | 1005.4 | |
| 20260902165522 | 61 | 0.0 | 0.0 | 0.00 | 0.00 | 0.00 | 34 | 1005.5 | |
| 20260902164521 | 62 | 0.0 | 0.0 | 0.00 | 0.00 | 0.00 | 44 | 1005.5 | |
| 20260902163521 | 62 | 0.0 | 0.0 | 0.00 | 0.00 | 0.00 | 49 | 1005.5 | |
| 20260902162522 | 62 | 0.0 | 0.0 | 0.00 | 0.00 | 0.00 | 53 | 1005.5 | |
| 20260902161521 | 62 | 0.0 | 0.0 | 0.00 | 0.00 | 0.00 | 59 | 1005.5 | |
| 20260902160522 | 63 | 0.0 | 0.0 | 0.00 | 0.00 | 0.00 | 68 | 1005.5 | |
| 20260902155521 | 63 | 0.0 | 0.0 | 0.00 | 0.00 | 0.00 | 72 | 1005.6 | |
| 20260902154522 | 64 | 0.0 | 0.0 | 0.00 | 0.00 | 0.00 | 74 | 1005.7 | |
| 20260902153521 | 64 | 0.0 | 0.0 | 0.00 | 0.00 | 0.00 | 73 | 1005.8 | |
| 20260902152521 | 65 | 0.0 | 2.0 | 0.00 | 0.00 | 0.00 | 73 | 1005.8 | |
| 20260902151521 | 65 | 0.0 | 0.0 | 0.00 | 0.00 | 0.00 | 72 | 1005.7 | |
| 20260902150521 | 65 | 0.0 | 2.0 | 0.00 | 0.00 | 0.00 | 72 | 1005.8 | |
| 20260902145522 | 66 | 0.0 | 2.0 | 0.00 | 0.00 | 0.00 | 70 | 1005.8 | |
| 20260902144521 | 66 | 0.0 | 3.0 | 0.00 | 0.00 | 0.00 | 70 | 1005.9 | |
| 20260902143521 | 66 | 0.0 | 4.0 | 0.00 | 0.00 | 0.00 | 70 | 1005.9 | |
| 20260902142521 | 66 | 270 | 1.0 | 4.0 | 0.00 | 0.00 | 0.00 | 69 | 1005.9 |
| 20260902141522 | 66 | 0.0 | 4.0 | 0.00 | 0.00 | 0.00 | 70 | 1005.9 | |
| 20260902140521 | 66 | 293 | 1.0 | 4.0 | 0.00 | 0.00 | 0.00 | 69 | 1006.0 |
| 20260902135521 | 66 | 293 | 1.0 | 4.0 | 0.00 | 0.00 | 0.00 | 70 | 1006.0 |
| 20260902134521 | 66 | 0.0 | 3.0 | 0.00 | 0.00 | 0.00 | 69 | 1006.0 | |
| 20260902133521 | 66 | 0.0 | 4.0 | 0.00 | 0.00 | 0.00 | 69 | 1006.1 | |
| 20260902132521 | 66 | 270 | 1.0 | 6.0 | 0.00 | 0.00 | 0.00 | 69 | 1006.2 |
| 20260902131522 | 66 | 0.0 | 4.0 | 0.00 | 0.00 | 0.00 | 67 | 1006.2 | |
| 20260902130521 | 66 | 293 | 2.0 | 9.0 | 0.00 | 0.00 | 0.00 | 67 | 1006.2 |
| 20260902125522 | 66 | 293 | 2.0 | 7.0 | 0.00 | 0.00 | 0.00 | 67 | 1006.3 |
| 20260902124522 | 66 | 293 | 2.0 | 9.0 | 0.00 | 0.00 | 0.00 | 69 | 1006.3 |
| 20260902123521 | 66 | 270 | 2.0 | 10.0 | 0.00 | 0.00 | 0.00 | 68 | 1006.4 |
| 20260902122521 | 65 | 270 | 1.0 | 7.0 | 0.00 | 0.00 | 0.00 | 69 | 1006.3 |
| 20260902121541 | 65 | 293 | 2.0 | 8.0 | 0.00 | 0.00 | 0.00 | 70 | 1006.4 |